When you browse on this site, cookies collect data to enhance your experience and personalize the content and advertising you see.
Visit our Privacy Policy to learn more. By continuing to use the site, you agree to this use of cookies and data.
  • In United Kingdom
  • List of Countries
  • For 7 days
  • Water Temperature
  • Weather Map
  • Weather Widgets
  • user-avatar
    Login

    Hourly Weather Brisbane

    Today, 15 September, Sunday

    Time Temperature Precipitation Wind Pressure Humidity
    00:00 +16°C° 0 mm 3 mps 765 mmHg 69%
    01:00 +16°C° 0 mm 2 mps 765 mmHg 74%
    02:00 +15°C° 0 mm 2 mps 765 mmHg 76%
    03:00 +15°C° 0 mm 2 mps 765 mmHg 78%
    04:00 +15°C° 0 mm 1 mps 765 mmHg 78%
    05:00 +16°C° 0 mm 1 mps 766 mmHg 76%
    06:00 +16°C° 0 mm 1 mps 766 mmHg 74%
    07:00 +16°C° 0 mm 1 mps 766 mmHg 73%
    08:00 +20°C° 0 mm 1 mps 766 mmHg 64%
    09:00 +22°C° 0 mm 1 mps 766 mmHg 55%
    10:00 +25°C° 0 mm 1 mps 766 mmHg 44%
    11:00 +26°C° 0 mm 2 mps 766 mmHg 40%
    12:00 +26°C° 0 mm 3 mps 765 mmHg 37%
    13:00 +27°C° 0 mm 3 mps 765 mmHg 34%
    14:00 +26°C° 0 mm 3 mps 764 mmHg 36%
    15:00 +25°C° 0 mm 4 mps 764 mmHg 38%
    16:00 +25°C° 0 mm 3 mps 764 mmHg 41%
    17:00 +22°C° 0 mm 3 mps 764 mmHg 50%
    18:00 +20°C° 0 mm 3 mps 765 mmHg 58%
    19:00 +18°C° 0 mm 3 mps 765 mmHg 66%
    20:00 +18°C° 0 mm 3 mps 766 mmHg 69%
    21:00 +17°C° 0 mm 2 mps 766 mmHg 73%
    22:00 +16°C° 0 mm 2 mps 766 mmHg 76%
    23:00 +16°C° 0 mm 2 mps 766 mmHg 77%

    Tomorrow, 16 September, Monday

    Time Temperature Precipitation Wind Pressure Humidity
    00:00 +15°C° 0 mm 1 mps 765 mmHg 77%
    01:00 +15°C° 0 mm 1 mps 765 mmHg 78%
    02:00 +15°C° 0 mm 1 mps 765 mmHg 79%
    03:00 +14°C° 0 mm 1 mps 765 mmHg 80%
    04:00 +14°C° 0 mm 1 mps 764 mmHg 81%
    05:00 +15°C° 0 mm 1 mps 765 mmHg 77%
    06:00 +15°C° 0 mm 1 mps 765 mmHg 74%
    07:00 +16°C° 0 mm 1 mps 765 mmHg 70%
    08:00 +20°C° 0 mm 1 mps 765 mmHg 59%
    09:00 +23°C° 0 mm 2 mps 765 mmHg 48%
    10:00 +26°C° 0 mm 2 mps 764 mmHg 37%
    11:00 +27°C° 0 mm 3 mps 764 mmHg 34%
    12:00 +29°C° 0 mm 3 mps 763 mmHg 31%
    13:00 +30°C° 0 mm 4 mps 762 mmHg 28%
    14:00 +29°C° 0 mm 4 mps 762 mmHg 33%
    15:00 +28°C° 0 mm 5 mps 761 mmHg 38%
    16:00 +26°C° 0 mm 5 mps 761 mmHg 42%
    17:00 +25°C° 0 mm 5 mps 761 mmHg 50%
    18:00 +22°C° 0 mm 4 mps 761 mmHg 58%
    19:00 +20°C° 0 mm 4 mps 761 mmHg 66%
    20:00 +19°C° 0 mm 4 mps 761 mmHg 67%
    21:00 +19°C° 0 mm 3 mps 762 mmHg 68%
    22:00 +18°C° 0 mm 3 mps 762 mmHg 69%
    23:00 +17°C° 0 mm 2 mps 762 mmHg 69%

    Day after tomorrow, 17 September, Tuesday

    Time Temperature Precipitation Wind Pressure Humidity
    00:00 +17°C° 0 mm 2 mps 762 mmHg 70%
    01:00 +16°C° 0 mm 2 mps 761 mmHg 71%
    02:00 +16°C° 0 mm 1 mps 761 mmHg 70%
    03:00 +16°C° 0 mm 1 mps 761 mmHg 70%
    04:00 +15°C° 0 mm 1 mps 761 mmHg 70%
    05:00 +16°C° 0 mm 1 mps 761 mmHg 66%
    06:00 +18°C° 0 mm 1 mps 762 mmHg 62%
    07:00 +18°C° 0 mm 1 mps 762 mmHg 58%
    08:00 +22°C° 0 mm 1 mps 762 mmHg 50%
    09:00 +25°C° 0 mm 1 mps 762 mmHg 41%
    10:00 +28°C° 0 mm 1 mps 762 mmHg 33%
    11:00 +29°C° 0 mm 2 mps 761 mmHg 31%
    12:00 +30°C° 0 mm 2 mps 761 mmHg 30%
    13:00 +31°C° 0 mm 3 mps 760 mmHg 28%
    14:00 +29°C° 0.1 mm 3 mps 760 mmHg 37%
    15:00 +26°C° 0.1 mm 3 mps 759 mmHg 45%
    16:00 +23°C° 0.1 mm 4 mps 759 mmHg 54%
    17:00 +22°C° 0 mm 4 mps 759 mmHg 60%
    18:00 +21°C° 0 mm 3 mps 760 mmHg 66%
    19:00 +20°C° 0 mm 3 mps 760 mmHg 72%
    20:00 +20°C° 0.3 mm 3 mps 761 mmHg 77%
    21:00 +19°C° 0.3 mm 2 mps 761 mmHg 81%
    22:00 +19°C° 0.3 mm 2 mps 762 mmHg 86%
    23:00 +18°C° 0.2 mm 2 mps 762 mmHg 87%

    18 September, Wednesday

    Time Temperature Precipitation Wind Pressure Humidity
    00:00 +18°C° 0.2 mm 2 mps 762 mmHg 88%
    01:00 +18°C° 0.2 mm 2 mps 762 mmHg 89%
    02:00 +18°C° 0 mm 2 mps 762 mmHg 87%
    03:00 +18°C° 0 mm 2 mps 762 mmHg 85%
    04:00 +17°C° 0 mm 3 mps 762 mmHg 84%
    05:00 +17°C° 0 mm 3 mps 763 mmHg 82%
    06:00 +17°C° 0 mm 3 mps 763 mmHg 80%
    07:00 +17°C° 0 mm 3 mps 764 mmHg 77%
    08:00 +19°C° 0 mm 2 mps 764 mmHg 67%
    09:00 +21°C° 0 mm 2 mps 764 mmHg 57%
    10:00 +24°C° 0 mm 1 mps 764 mmHg 47%
    11:00 +25°C° 0 mm 1 mps 763 mmHg 42%
    12:00 +27°C° 0 mm 2 mps 763 mmHg 37%
    13:00 +28°C° 0 mm 2 mps 762 mmHg 32%
    14:00 +27°C° 0 mm 2 mps 762 mmHg 35%
    15:00 +26°C° 0 mm 3 mps 762 mmHg 38%
    16:00 +26°C° 0 mm 3 mps 762 mmHg 41%
    17:00 +24°C° 0 mm 3 mps 762 mmHg 51%
    18:00 +21°C° 0 mm 3 mps 763 mmHg 62%
    19:00 +19°C° 0 mm 3 mps 764 mmHg 72%
    20:00 +18°C° 0 mm 3 mps 764 mmHg 75%
    21:00 +18°C° 0 mm 2 mps 765 mmHg 78%
    22:00 +18°C° 0 mm 1 mps 765 mmHg 81%
    23:00 +18°C° 0 mm 1 mps 765 mmHg 83%

    19 September, Thursday

    Time Temperature Precipitation Wind Pressure Humidity
    00:00 +18°C° 0 mm 1 mps 765 mmHg 84%
    01:00 +16°C° 0 mm 1 mps 765 mmHg 85%
    02:00 +16°C° 0 mm 1 mps 765 mmHg 86%
    03:00 +16°C° 0 mm 1 mps 765 mmHg 87%
    04:00 +16°C° 0 mm 1 mps 765 mmHg 88%
    05:00 +16°C° 0 mm 1 mps 765 mmHg 85%
    06:00 +18°C° 0 mm 1 mps 765 mmHg 83%
    07:00 +18°C° 0 mm 1 mps 766 mmHg 80%
    08:00 +21°C° 0 mm 1 mps 766 mmHg 70%
    09:00 +23°C° 0 mm 1 mps 766 mmHg 59%
    10:00 +26°C° 0 mm 2 mps 766 mmHg 48%
    11:00 +26°C° 0 mm 2 mps 765 mmHg 47%
    12:00 +26°C° 0 mm 3 mps 764 mmHg 45%
    13:00 +27°C° 0 mm 4 mps 764 mmHg 43%
    14:00 +26°C° 0 mm 4 mps 764 mmHg 47%
    15:00 +25°C° 0 mm 4 mps 763 mmHg 50%
    16:00 +23°C° 0 mm 4 mps 763 mmHg 54%
    17:00 +22°C° 0 mm 4 mps 764 mmHg 60%
    18:00 +21°C° 0 mm 3 mps 764 mmHg 67%
    19:00 +20°C° 0 mm 3 mps 765 mmHg 74%
    20:00 +19°C° 0 mm 2 mps 765 mmHg 78%
    21:00 +18°C° 0 mm 2 mps 765 mmHg 82%
    22:00 +19°C° 0 mm 1 mps 766 mmHg 86%
    23:00 +19°C° 0 mm 1 mps 766 mmHg 87%

    20 September, Friday

    Time Temperature Precipitation Wind Pressure Humidity
    00:00 +18°C° 0 mm 1 mps 765 mmHg 88%
    01:00 +18°C° 0 mm 1 mps 765 mmHg 89%
    02:00 +16°C° 0 mm 0 mps 765 mmHg 90%
    03:00 +15°C° 0 mm 0 mps 765 mmHg 90%
    04:00 +15°C° 0 mm 0 mps 765 mmHg 90%
    05:00 +16°C° 0 mm 0 mps 765 mmHg 88%
    06:00 +17°C° 0 mm 0 mps 766 mmHg 86%
    07:00 +17°C° 0 mm 0 mps 766 mmHg 84%
    08:00 +21°C° 0 mm 1 mps 766 mmHg 73%
    09:00 +23°C° 0 mm 2 mps 766 mmHg 63%
    10:00 +25°C° 0 mm 2 mps 766 mmHg 53%
    11:00 +26°C° 0 mm 3 mps 765 mmHg 49%
    12:00 +26°C° 0 mm 3 mps 765 mmHg 45%
    13:00 +27°C° 0 mm 4 mps 764 mmHg 41%
    14:00 +26°C° 0 mm 4 mps 764 mmHg 46%
    15:00 +26°C° 0 mm 4 mps 764 mmHg 51%
    16:00 +25°C° 0 mm 4 mps 763 mmHg 55%
    17:00 +23°C° 0 mm 4 mps 764 mmHg 64%
    18:00 +21°C° 0 mm 3 mps 764 mmHg 73%
    19:00 +20°C° 0 mm 3 mps 765 mmHg 81%
    20:00 +19°C° 0 mm 2 mps 765 mmHg 82%
    21:00 +19°C° 0 mm 2 mps 765 mmHg 83%
    22:00 +18°C° 0 mm 2 mps 765 mmHg 83%
    23:00 +19°C° 0 mm 1 mps 765 mmHg 85%
    Show more